Tracking 19832 objects as of 25-Aug-2019
HD Live streaming from Space Station
objects crossing your sky now

FENGYUN 1C DEB

Track FENGYUN 1C DEB now!
10-day predictions


NORAD ID: 31642
Int'l Code: 1999-025CAY
Perigee: 710.8 km
Apogee: 894.1 km
Inclination: 98.6 °
Period: 100.8 minutes
Semi major axis: 7173 km
RCS: 0.0088 m2 (small)
Launch date: May 10, 1999
Source: People's Republic of China (PRC)
Launch site: Taiyaun Space Center, China (TSC)

Note: This is SATELLITE DEBRIS
aabbcc
Your satellite tracking list
Your tracking list is empty




NASA's NSSDC Master Catalog

Two Line Element Set (TLE):
1 31642U 99025CAY 19235.69657923 +.00000102 +00000-0 +53250-4 0  9990
2 31642 098.6170 321.8945 0127736 193.6450 166.1267 14.28932642640982
Source of the keplerian elements: AFSPC